Погода в Красном Боре

Россия / Санкт-Петербург и Ленинградская область     59°40′50″N   30°41′01″E
темп.,
°C
ветер,
м/с
пор.,
м/с
влажн.,
%
обл.,
%
осадки,
мм/ч
давл.,
гПа
погр.,
м
6 марта, сб
сб600:00−7сз268314 0.0 1015293
03:00−7зсз258717 0.0 1016219
06:00−8зсз27890 0.0 1015262
09:00−7зюз38860 0.0 1015394
12:00−3юз486512 0.0 1013817
15:00−2юз6114749 0.0 10081164
18:00−3ююз71588100 0.3 10021221
21:00−2юз71591100 1.6 9951178
7 марта, вс
вс700:00−1зюз61297100 1.8 991915
03:00−4зсз51071100 4.2 9901087
06:00−7зсз388655 0.1 990503
09:00−6зюз276761 0.8 990795
12:00−6з2383100 0.3 991431
15:00−5сз3359100 0.9 9921153
18:00−7с3770100 0.5 993922
21:00−9ссз3108769 0.5 996475
8 марта, пн
пн800:00−9сз399293 0.1 998495
03:00−9с5108996 0.8 1002889
06:00−10с51087100 0.3 1004948
09:00−12с51086100 0.5 1007733
12:00−11с5980100 0.1 1010738
15:00−10с4878100 0.2 1013768
18:00−11с4882100 0.1 1014737
21:00−13ссз3887100 0.1 1016518
9 марта, вт
вт900:00−14ссз249397 0.1 1017215
03:00−15ссв019699 0.1 101750
06:00−14вюв1291100 0.0 1017116
09:00−15в3484100 0.0 1016249
12:00−13всв3476100 0.0 1017425
15:00−12всв367699 0.0 1018469
18:00−14св478422 0.0 1018376
21:00−17всв389026 0.0 1021269
10 марта, ср
ср1000:00−18всв26860 0.0 1023199
03:00−19всв23820 0.0 1024127
06:00−19всв23820 0.0 1025103
09:00−19всв23770 0.0 1026162
12:00−14в23670 0.0 1026452
15:00−11в236213 0.0 1026713
18:00−13вюв237428 0.0 1025285
21:00−15юв258814 0.0 1025154